Torna al catalogo

JILIN-1 GAOFEN 07B 01 XING

AttivoScienzaSSO
NORAD 66993·PAYLOAD·🇨🇳 China
Questo nome del satellite non è ancora stato confermato da fonti ufficiali.

Lanciato Dec 10, 2025 da Jiuquan Satellite Launch Center

Loading…

Prossimi Passaggi (prossime 24 ore)

TLE

AggiornatoSource: Space-Track

Epoca: Sep 14, 2026, 10:37 UTC

1 66993U 25292A   26257.44240383  .00002862  00000-0  19553-3 0  9997
2 66993  97.6239 332.2897 0015918  58.4220 301.8559 15.06869773 41884

Traccia JILIN-1 GAOFEN 07B 01 XING in tempo reale con AllMySat

Download on the App Store